Home > Weather > Warendorf > Past weeks

Flag for Germany Weather for the Past 2 Weeks in Warendorf, North Rhine-Westphalia, Germany

Now
48 °F

Broken clouds.


Feels Like: 44 °F
Forecast: 41 / 52 °F
Wind: 9 mph from Southwest

Location: Muenster / Osnabrueck

Current Time: Apr 29, 2016 at 4:39:54 PM

Latest Report: Apr 29, 2016 at 4:20 PM


Visibility: N/A

Pressure: 29.95 "Hg

Humidity: 76%

Dew Point: 41 °F

Location of WarendorfLocation

Historic Weather in Warendorf — Graph

°F

Warendorf Temperature Yesterday

Maximum temperature yesterday: 50 °F (at 3:20 PM)
Minimum temperature yesterday: 34 °F (at 4:50 AM)
Average temperature yesterday: 42 °F

High & Low Weather Summary for the Past Weeks

 TemperatureHumidityPressure
High63 °F (Apr 14, 3:20 PM)100% (Apr 16, 12:20 AM)30.48 "Hg (Apr 16, 12:20 AM)
Low30 °F (Apr 18, 6:20 AM)31% (Apr 21, 6:20 PM)29.42 "Hg (Apr 26, 8:20 AM)
Average45 °F73%29.91 "Hg
* Reported Apr 14 3:20 PM — Apr 29 3:20 PM, Warendorf, Weather by CustomWeather, © 2016

Note: Actual official high and low records may vary slightly from our data, if they occured in-between our weather recording intervals... More about our weather records

Advertising

Warendorf Weather History for the Previous 24 Hours

Scroll right to see more
 ConditionsComfort  
Time TempWeatherWind HumidityBarometerVisibility
3:20 PM
Fri, Apr 29
46 °FLight rain. Broken clouds.12 mph76%29.95 "HgN/A
2:50 PM46 °FLight rain. Partly sunny.10 mph76%29.95 "HgN/A
2:20 PM48 °FLight rain. Partly sunny.16 mph71%29.95 "HgN/A
1:50 PM52 °FLight rain. Partly sunny.16 mph50%29.92 "HgN/A
1:20 PM52 °FLight rain. Partly sunny.15 mph54%29.92 "HgN/A
12:50 PM52 °FLight rain. Partly sunny.16 mph54%29.92 "HgN/A
12:20 PM50 °FLight rain. Partly sunny.15 mph62%29.92 "HgN/A
11:50 AM50 °FPartly sunny.16 mph58%29.92 "HgN/A
11:20 AM50 °FBroken clouds.21 mph58%29.92 "HgN/A
10:50 AM50 °FBroken clouds.21 mph54%29.89 "HgN/A
10:20 AM50 °FBroken clouds.20 mph54%29.89 "HgN/A
9:50 AM50 °FBroken clouds.16 mph54%29.89 "HgN/A
9:20 AM48 °FBroken clouds.16 mph58%29.89 "HgN/A
8:50 AM46 °FPassing clouds.12 mph66%29.92 "HgN/A
8:20 AM45 °FPassing clouds.14 mph66%29.92 "HgN/A
7:50 AM43 °FPassing clouds.13 mph71%29.92 "HgN/A
7:20 AM41 °FPassing clouds.10 mph76%29.92 "HgN/A
6:50 AM39 °FClear.10 mph81%29.92 "Hg10 mi
6:20 AM39 °FClear.10 mph81%29.92 "Hg10 mi
5:50 AM39 °FPassing clouds.10 mph81%29.92 "HgN/A
5:20 AM39 °FClear.9 mph81%29.92 "Hg10 mi
4:20 AM37 °FClear.9 mph87%29.92 "Hg10 mi
3:50 AM37 °FClear.9 mph93%29.92 "Hg10 mi
3:20 AM37 °FClear.7 mph93%29.95 "Hg10 mi
2:50 AM37 °FClear.7 mph93%29.95 "Hg6 mi
2:20 AM37 °FClear.6 mph93%29.95 "Hg6 mi
1:50 AM37 °FClear.5 mph93%29.95 "Hg6 mi
1:20 AM37 °FClear.5 mph93%29.98 "Hg10 mi
12:20 AM39 °FPassing clouds.5 mph87%29.95 "HgN/A
11:50 PM
Thu, Apr 28
41 °FPassing clouds.6 mph81%29.98 "HgN/A
11:20 PM41 °FClear.6 mph87%29.98 "Hg10 mi
10:50 PM41 °FPassing clouds.6 mph87%29.98 "HgN/A
10:20 PM41 °FPassing clouds.6 mph81%29.98 "HgN/A
9:50 PM41 °FClear.6 mph81%29.98 "Hg10 mi
9:20 PM41 °FPassing clouds.5 mph81%29.98 "HgN/A
8:50 PM43 °FPassing clouds.8 mph76%29.98 "HgN/A
8:20 PM43 °FPassing clouds.5 mph81%29.98 "HgN/A
7:50 PM43 °FBroken clouds.6 mph81%29.98 "HgN/A
7:20 PM43 °FSprinkles. Broken clouds.10 mph81%29.98 "HgN/A
6:50 PM45 °FScattered showers. Broken clouds.8 mph71%29.95 "HgN/A
6:20 PM48 °FSprinkles. Partly sunny.9 mph58%29.95 "HgN/A
5:50 PM48 °FScattered showers. Partly sunny.8 mph58%29.95 "HgN/A
5:20 PM48 °FSprinkles. Broken clouds.13 mph58%29.95 "HgN/A
4:20 PM50 °FPassing clouds.10 mph50%29.95 "HgN/A
Weather by CustomWeather, © 2016

See weather overviewHow to use our weather pages